map of MCI home
Great Circle Mapper logo
MCI - Airport
Location
City:  Kansas City, Missouri, United States
Name:Kansas City International Airport
ICAO / IATA:KMCI / MCI
FAA:MCI

Details
Type:Airport (Part 139 Class I)
Use:Public/Civil, International (customs landing rights)
Latitude:3917'51"N (39.297605)
Longitude:9442'50"W (-94.713905)
Datum:WGS 1984
Elevation:1026 ft (313 m)
Runways:3
Longest:10801 × 150 ft (3292 × 45.5 m), paved

Time
Time Zone:UTC-6 (DST-5)
Local Time:

Weather
METAR:KMCI 020553Z 13005KT 10SM CLR 21/17 A3011 RMK AO2 SLP185 T02110167 10278 20211 402940183 51011
TAF:KMCI 020520Z 0206/0306 13006KT P6SM FEW250

Related Locations
Nearby:
Farthest:MGV: 10752 mi / 17304 km
Margaret River, WA, AU

Find:

   beyond  
but within

Other Information
Maps:
Delays:
NOTAMs:
Links:
Sources:

  
flag of United States
flag of Missouri
  

Airport Diagram

Airport diagram for MCI

Airport diagram PDF

Sectional Chart

Flight Planning
at skyvector.com

Satellite Image

Google Maps Satellite View

 

Copyright © 2004-2014 Karl L. Swartz. All rights reserved.
The Great Circle Mapper name and logo are trademarks of the Great Circle Mapper.
All other trademarks mentioned herein belong to their respective owners.
Please see credits for attibutions and further copyright information.

  Follow gcmap on Facebook Follow gcmap on Twitter

hCard Microformat

Geo Microformat